Flag for United Kingdom Weather past 2 weeks in Brighton, England, United Kingdom

Now
57 °F

Scattered clouds.


Feels Like: 52 °F
Forecast: 42 / 49 °F
Wind: 25 mph from Northwest

Location: Shoreham Airport

Current Time: Mar 31, 2015 at 2:27:10 PM

Latest Report: Mar 31, 2015 at 1:50 PM


Visibility: N/A

Pressure: 29.89 "Hg

Humidity: 41%

Dew point: 34 °F

Location of BrightonLocation

Historic Weather in Brighton — Graph

°F

Brighton temperature yesterday

Maximum temperature yesterday: 52 °F (at 11:50 AM)
Minimum temperature yesterday: 43 °F (at 7:50 AM)
Average temperature yesterday: 49 °F

Past Weeks' High & Low Weather Summary

 TemperatureHumidityPressure
High59 °F (Mar 26, 1:50 PM)100% (Mar 26, 8:20 AM)30.51 "Hg (Mar 26, 8:20 AM)
Low36 °F (Mar 20, 7:20 PM)41% (Mar 31, 1:20 PM)29.45 "Hg (Mar 29, 2:50 PM)
Average48 °F75%30.04 "Hg
* Reported Mar 16 12:20 PM — Mar 31 1:20 PM, Brighton, Weather by CustomWeather, © 2015

Note: Actual official high and low records may vary slightly from our data, if they occured in-between our weather recording intervals... More about our weather records

Advertising

Brighton weather history for previous 24 hours

 ConditionsComfort  
Time TempWeatherWind HumidityBarometerVisibility
1:20 PM
Tue, Mar 31
55 °FScattered clouds.29 mph41%29.89 "HgN/A
12:50 PM57 °FPassing clouds.23 mph44%29.86 "HgN/A
12:20 PM55 °FPassing clouds.28 mph44%29.86 "HgN/A
11:50 AM55 °FPassing clouds.29 mph44%29.83 "HgN/A
11:20 AM55 °FScattered clouds.25 mph51%29.83 "HgN/A
10:50 AM55 °FScattered clouds.23 mph59%29.80 "HgN/A
10:20 AM54 °FScattered clouds.25 mph58%29.77 "HgN/A
9:50 AM54 °FScattered clouds.22 mph58%29.77 "HgN/A
9:20 AM52 °FPartly sunny.25 mph62%29.74 "HgN/A
8:50 AM52 °FPartly sunny.24 mph62%29.71 "HgN/A
8:20 AM52 °FScattered clouds.23 mph62%29.68 "HgN/A
7:50 AM50 °FScattered clouds.25 mph62%29.65 "HgN/A
7:50 PM
Mon, Mar 30
48 °FDrizzle. Low clouds.20 mph100%29.74 "Hg1 mi
7:20 PM48 °FDrizzle. Mostly cloudy.22 mph94%29.77 "Hg2 mi
6:50 PM48 °FMostly cloudy.22 mph94%29.80 "Hg2 mi
6:20 PM48 °FPartly sunny.21 mph94%29.80 "Hg2 mi
5:50 PM48 °FScattered clouds.20 mph87%29.83 "HgN/A
5:20 PM48 °FPassing clouds.18 mph82%29.83 "HgN/A
4:50 PM48 °FPassing clouds.21 mph82%29.86 "HgN/A
4:20 PM48 °FPassing clouds.21 mph82%29.89 "HgN/A
3:50 PM48 °FPassing clouds.18 mph76%29.92 "HgN/A
3:20 PM48 °FPassing clouds.21 mph76%29.92 "HgN/A
2:50 PM48 °FPassing clouds.22 mph76%29.89 "HgN/A
2:20 PM50 °FPassing clouds.21 mph76%29.92 "HgN/A
Weather by CustomWeather, © 2015

See weather overviewHow to use our weather pages